User: anonymous   Login
Location: Unspecified
(0.0000°N, 0.0000°E)
Time: 14:19:48
(UTC+00:00)
Language:

Kiku-1 - Orbit

View from above orbital plane
View from above orbital plane
View from above satellite
View from above satellite

Ground track
Ground track

The orbit data is extracted from the following two-line orbital elements,

1 08197U 75082A   18021.23239692 -.00000108  00000-0  23689-4 0  9997
2 08197  46.9901 317.2027 0085887 355.8672 151.4375 13.59507148105083
Epoch (UTC): 21 January 2018 05:34:39
Eccentricity: 0.0085887
inclination: 46.9901°
perigee height: 974 km
apogee height: 1101 km
right ascension of ascending node: 317.2027°
argument of perigee: 355.8672°
revolutions per day: 13.59507148
mean anomaly at epoch: 151.4375°
orbit number at epoch: 10508

The dashed part of the orbit path shows where the satellite is in the earth's shadow,  

DLR